When you browse on this site, cookies collect data to enhance your experience and personalize the content and advertising you see.
Visit our Privacy Policy to learn more. By continuing to use the site, you agree to this use of cookies and data.
  • In Österreich
  • Länderverzeichnis
  • Für 7 Tage
  • Wassertemperatur
  • Wetterkarte
  • News
  • Widgets
  • user-avatar
    Anmelden

    Stündliche Wetter La-Plata

    Heute, 12 Dezember, Donnerstag

    Zeit Temperatur Niederschläge Wind Luftdruck Luftfeuchtigkeit
    00:00 +22°C° 0 mm 6 m/S 751 mmHg 82%
    01:00 +22°C° 0 mm 5 m/S 751 mmHg 83%
    02:00 +22°C° 0 mm 5 m/S 751 mmHg 76%
    03:00 +21°C° 0 mm 5 m/S 751 mmHg 74%
    04:00 +21°C° 0 mm 6 m/S 751 mmHg 71%
    05:00 +20°C° 0 mm 7 m/S 751 mmHg 69%
    06:00 +22°C° 0 mm 8 m/S 752 mmHg 55%
    07:00 +23°C° 0 mm 8 m/S 753 mmHg 40%
    08:00 +26°C° 0 mm 9 m/S 754 mmHg 26%
    09:00 +27°C° 0 mm 9 m/S 754 mmHg 23%
    10:00 +28°C° 0 mm 9 m/S 755 mmHg 20%
    11:00 +29°C° 0 mm 9 m/S 755 mmHg 18%
    12:00 +29°C° 0 mm 8 m/S 755 mmHg 16%
    13:00 +29°C° 0 mm 8 m/S 755 mmHg 15%
    14:00 +31°C° 0 mm 8 m/S 755 mmHg 14%
    15:00 +29°C° 0 mm 7 m/S 755 mmHg 14%
    16:00 +28°C° 0 mm 7 m/S 755 mmHg 15%
    17:00 +28°C° 0 mm 6 m/S 756 mmHg 15%
    18:00 +26°C° 0 mm 6 m/S 757 mmHg 18%
    19:00 +23°C° 0 mm 6 m/S 758 mmHg 21%
    20:00 +20°C° 0 mm 6 m/S 759 mmHg 25%
    21:00 +19°C° 0 mm 6 m/S 759 mmHg 28%
    22:00 +16°C° 0 mm 6 m/S 760 mmHg 31%
    23:00 +15°C° 0 mm 6 m/S 760 mmHg 34%

    Morgen, 13 Dezember, Freitag

    Zeit Temperatur Niederschläge Wind Luftdruck Luftfeuchtigkeit
    00:00 +14°C° 0 mm 6 m/S 760 mmHg 39%
    01:00 +12°C° 0 mm 5 m/S 760 mmHg 43%
    02:00 +11°C° 0 mm 4 m/S 760 mmHg 47%
    03:00 +11°C° 0 mm 3 m/S 760 mmHg 49%
    04:00 +10°C° 0 mm 3 m/S 760 mmHg 51%
    05:00 +10°C° 0 mm 2 m/S 760 mmHg 53%
    06:00 +14°C° 0 mm 2 m/S 761 mmHg 44%
    07:00 +17°C° 0 mm 2 m/S 761 mmHg 35%
    08:00 +20°C° 0 mm 2 m/S 761 mmHg 26%
    09:00 +21°C° 0 mm 3 m/S 761 mmHg 25%
    10:00 +24°C° 0 mm 3 m/S 760 mmHg 25%
    11:00 +26°C° 0 mm 3 m/S 760 mmHg 24%
    12:00 +27°C° 0 mm 3 m/S 759 mmHg 22%
    13:00 +27°C° 0 mm 3 m/S 759 mmHg 20%
    14:00 +28°C° 0 mm 3 m/S 758 mmHg 18%
    15:00 +28°C° 0 mm 3 m/S 757 mmHg 18%
    16:00 +28°C° 0 mm 4 m/S 757 mmHg 18%
    17:00 +28°C° 0 mm 4 m/S 757 mmHg 18%
    18:00 +26°C° 0 mm 5 m/S 757 mmHg 29%
    19:00 +22°C° 0 mm 6 m/S 757 mmHg 40%
    20:00 +20°C° 0 mm 7 m/S 757 mmHg 50%
    21:00 +21°C° 0 mm 7 m/S 757 mmHg 49%
    22:00 +21°C° 0 mm 7 m/S 757 mmHg 47%
    23:00 +21°C° 0 mm 7 m/S 757 mmHg 45%

    übermorgen, 14 Dezember, Samstag

    Zeit Temperatur Niederschläge Wind Luftdruck Luftfeuchtigkeit
    00:00 +21°C° 0 mm 7 m/S 757 mmHg 44%
    01:00 +22°C° 0 mm 7 m/S 756 mmHg 43%
    02:00 +22°C° 0 mm 6 m/S 756 mmHg 43%
    03:00 +21°C° 0 mm 6 m/S 757 mmHg 43%
    04:00 +21°C° 0 mm 6 m/S 757 mmHg 44%
    05:00 +21°C° 0 mm 6 m/S 757 mmHg 45%
    06:00 +23°C° 0 mm 6 m/S 757 mmHg 41%
    07:00 +24°C° 0 mm 6 m/S 758 mmHg 38%
    08:00 +27°C° 0 mm 6 m/S 758 mmHg 35%
    09:00 +29°C° 0 mm 5 m/S 757 mmHg 31%
    10:00 +30°C° 0 mm 5 m/S 757 mmHg 27%
    11:00 +33°C° 0 mm 5 m/S 756 mmHg 23%
    12:00 +35°C° 0 mm 4 m/S 755 mmHg 20%
    13:00 +36°C° 0 mm 4 m/S 755 mmHg 18%
    14:00 +37°C° 0 mm 3 m/S 754 mmHg 15%
    15:00 +37°C° 0 mm 3 m/S 754 mmHg 16%
    16:00 +36°C° 0 mm 3 m/S 753 mmHg 17%
    17:00 +36°C° 0 mm 3 m/S 753 mmHg 17%
    18:00 +34°C° 0 mm 4 m/S 753 mmHg 26%
    19:00 +30°C° 0 mm 4 m/S 753 mmHg 35%
    20:00 +27°C° 0 mm 5 m/S 753 mmHg 43%
    21:00 +27°C° 0 mm 4 m/S 754 mmHg 47%
    22:00 +26°C° 0 mm 4 m/S 754 mmHg 51%
    23:00 +26°C° 0 mm 3 m/S 754 mmHg 54%

    15 Dezember, Sonntag

    Zeit Temperatur Niederschläge Wind Luftdruck Luftfeuchtigkeit
    00:00 +25°C° 0.3 mm 2 m/S 754 mmHg 60%
    01:00 +24°C° 0.3 mm 2 m/S 754 mmHg 66%
    02:00 +23°C° 0.3 mm 1 m/S 754 mmHg 72%
    03:00 +21°C° 0.1 mm 2 m/S 754 mmHg 75%
    04:00 +21°C° 0.1 mm 3 m/S 754 mmHg 78%
    05:00 +21°C° 0.1 mm 3 m/S 753 mmHg 82%
    06:00 +22°C° 0.1 mm 4 m/S 753 mmHg 78%
    07:00 +23°C° 0.1 mm 4 m/S 753 mmHg 74%
    08:00 +25°C° 0.1 mm 4 m/S 753 mmHg 70%
    09:00 +26°C° 0.4 mm 5 m/S 753 mmHg 67%
    10:00 +26°C° 0.4 mm 5 m/S 753 mmHg 64%
    11:00 +27°C° 0.4 mm 5 m/S 753 mmHg 61%
    12:00 +27°C° 0.1 mm 5 m/S 753 mmHg 57%
    13:00 +27°C° 0.1 mm 5 m/S 752 mmHg 54%
    14:00 +27°C° 0.1 mm 6 m/S 752 mmHg 50%
    15:00 +27°C° 0 mm 6 m/S 752 mmHg 48%
    16:00 +27°C° 0 mm 7 m/S 752 mmHg 46%
    17:00 +27°C° 0 mm 7 m/S 752 mmHg 44%
    18:00 +24°C° 0 mm 6 m/S 753 mmHg 52%
    19:00 +22°C° 0 mm 5 m/S 754 mmHg 60%
    20:00 +20°C° 0 mm 5 m/S 754 mmHg 68%
    21:00 +19°C° 0 mm 4 m/S 754 mmHg 75%
    22:00 +18°C° 0 mm 4 m/S 754 mmHg 81%
    23:00 +17°C° 0 mm 3 m/S 754 mmHg 88%

    16 Dezember, Montag

    Zeit Temperatur Niederschläge Wind Luftdruck Luftfeuchtigkeit
    00:00 +17°C° 0 mm 3 m/S 754 mmHg 89%
    01:00 +16°C° 0 mm 2 m/S 754 mmHg 90%
    02:00 +16°C° 0 mm 2 m/S 754 mmHg 91%
    03:00 +16°C° 0 mm 2 m/S 754 mmHg 91%
    04:00 +16°C° 0 mm 2 m/S 755 mmHg 91%
    05:00 +15°C° 0 mm 2 m/S 755 mmHg 92%
    06:00 +18°C° 0 mm 2 m/S 756 mmHg 80%
    07:00 +20°C° 0 mm 2 m/S 756 mmHg 69%
    08:00 +23°C° 0 mm 2 m/S 756 mmHg 57%
    09:00 +26°C° 0 mm 2 m/S 756 mmHg 47%
    10:00 +28°C° 0 mm 2 m/S 756 mmHg 36%
    11:00 +31°C° 0 mm 2 m/S 756 mmHg 25%
    12:00 +31°C° 0 mm 3 m/S 755 mmHg 27%
    13:00 +30°C° 0 mm 3 m/S 755 mmHg 29%
    14:00 +30°C° 0 mm 4 m/S 754 mmHg 31%
    15:00 +28°C° 0.1 mm 4 m/S 754 mmHg 37%
    16:00 +27°C° 0.1 mm 3 m/S 755 mmHg 42%
    17:00 +25°C° 0.1 mm 3 m/S 755 mmHg 48%
    18:00 +24°C° 0.3 mm 3 m/S 755 mmHg 53%
    19:00 +22°C° 0.3 mm 3 m/S 756 mmHg 57%
    20:00 +21°C° 0.3 mm 4 m/S 756 mmHg 61%
    21:00 +20°C° 0 mm 3 m/S 757 mmHg 61%
    22:00 +20°C° 0 mm 3 m/S 757 mmHg 61%
    23:00 +19°C° 0 mm 3 m/S 757 mmHg 61%

    17 Dezember, Dienstag

    Zeit Temperatur Niederschläge Wind Luftdruck Luftfeuchtigkeit
    00:00 +19°C° 0 mm 3 m/S 757 mmHg 62%
    01:00 +18°C° 0 mm 2 m/S 757 mmHg 64%
    02:00 +18°C° 0 mm 2 m/S 757 mmHg 66%
    03:00 +18°C° 0 mm 2 m/S 757 mmHg 66%
    04:00 +18°C° 0 mm 2 m/S 757 mmHg 67%
    05:00 +18°C° 0 mm 2 m/S 757 mmHg 67%
    06:00 +21°C° 0 mm 3 m/S 757 mmHg 58%
    07:00 +24°C° 0 mm 3 m/S 758 mmHg 48%
    08:00 +26°C° 0 mm 3 m/S 758 mmHg 39%
    09:00 +28°C° 0 mm 4 m/S 758 mmHg 35%
    10:00 +29°C° 0 mm 4 m/S 757 mmHg 32%
    11:00 +30°C° 0 mm 4 m/S 757 mmHg 29%
    12:00 +32°C° 0 mm 4 m/S 756 mmHg 27%
    13:00 +33°C° 0 mm 4 m/S 756 mmHg 25%
    14:00 +33°C° 0 mm 3 m/S 755 mmHg 23%
    15:00 +33°C° 0 mm 4 m/S 755 mmHg 24%
    16:00 +32°C° 0 mm 4 m/S 754 mmHg 26%
    17:00 +32°C° 0 mm 4 m/S 754 mmHg 27%
    18:00 +29°C° 0 mm 4 m/S 754 mmHg 38%
    19:00 +26°C° 0 mm 5 m/S 755 mmHg 48%
    20:00 +23°C° 0 mm 5 m/S 755 mmHg 59%
    21:00 +23°C° 0 mm 5 m/S 755 mmHg 57%
    22:00 +23°C° 0 mm 5 m/S 755 mmHg 56%
    23:00 +25°C° 0 mm 5 m/S 756 mmHg 54%
    Mehr zeigen